Weather in Borshchev

Ukraine / Ternopil District     48°48′04″N   26°02′32″E
temp.,
°C
wind,
m/s
gust,
m/s
humid.,
%
clouds,
%
prec.,
mm/h
press.,
hPa
HPBL,
m
15 may, sat
sat1500:00+11wsw4107589 0.0 1008271
03:00+11wsw3879100 0.0 1009214
06:00+10w3884100 0.1 1009232
09:00+10w499199 1.0 1011522
12:00+12wnw4782100 0.1 1013580
15:00+14nnw347564 0.1 1012462
18:00+16e01625 0.0 1012772
21:00+12e22795 0.0 101214
16 may, sun
sun1600:00+11e228524 0.0 101121
03:00+9e239099 0.1 101136
06:00+9ese258950 0.0 101188
09:00+14se4778100 0.0 1010349
12:00+19sse6866100 0.0 1009903
15:00+20sse7116093 0.2 10071953
18:00+17ssw4107899 2.3 1007572
21:00+14ssw71483100 3.1 1008480
17 may, mon
mon1700:00+12se2495100 1.1 1009137
03:00+11n119366 1.5 100910
06:00+11nnw229555 0.0 100931
09:00+15nw347714 0.0 1010428
12:00+18wnw33561 0.0 10091343
15:00+21nnw11491 0.0 10071754
18:00+20e445535 0.0 10061203
21:00+16e2270100 0.1 100612
18 may, tue
tue1800:00+13nw4797100 5.7 1007336
03:00+12nnw3896100 9.5 1008388
06:00+12nw2596100 0.9 1008344
09:00+13wnw348668 0.9 1009617
12:00+17nw336571 0.6 10091263
15:00+16nw3473100 3.1 1009693
18:00+13nw4689100 2.9 1009295
21:00+12w2288100 2.9 101031
19 may, wed
wed1900:00+11wsw4693100 0.4 1011202
03:00+10wnw3596100 4.9 1011204
06:00+9nw359898 0.1 1012196
09:00+11nnw689199 0.2 1011635
12:00+11nnw5990100 0.6 1013659
15:00+11nnw5887100 0.6 1012628
18:00+11nnw4984100 0.0 1012464
21:00+11nw3886100 0.0 1012283